EA3BIN-13 Weather Reports


time (UTC)temp
C
wind
direction
speed
KPH
gust
KPH
rain 1hr
cm
rain 24hr
cm
rain mn
cm
humidity
%
barometer
mb
20260506174918 26 0.0 0.0 0.00 0.00 0.00 38 1009.2
20260506173924 23 0.0 0.0 0.00 0.00 0.00 49 1009.6
20260506172919 17 0.0 0.0 0.00 0.00 0.00 71 1010.6
20260506171918 19 0.0 0.0 0.00 0.00 0.00 54 1010.4
20260506170919 22 0.0 0.0 0.00 0.00 0.00 41 1009.8
20260506165918 35 0.0 0.0 0.00 0.00 0.00 24 1007.6
20260506164918 35 0.0 0.0 0.00 0.00 0.00 24 1007.6
20260506163919 40 0.0 0.0 0.00 0.00 0.00 21 1006.7
20260506162918 22 0.0 0.0 0.00 0.00 0.00 46 1009.5
20260506161919 26 0.0 0.0 0.00 0.00 0.00 39 1008.7
20260506160918 21 0.0 0.0 0.00 0.00 0.00 45 1009.6
20260506155919 22 0.0 0.0 0.00 0.00 0.00 38 1009.4
20260506154918 22 0.0 0.0 0.00 0.00 0.00 34 1009.3
20260506153919 31 0.0 0.0 0.00 0.00 0.00 23 1007.9
20260506152918 34 0.0 0.0 0.00 0.00 0.00 19 1007.3
20260506151919 30 0.0 0.0 0.00 0.00 0.00 28 1008.1
20260506150919 31 0.0 0.0 0.00 0.00 0.00 22 1008.1
20260506145919 42 0.0 0.0 0.00 0.00 0.00 15 1006.4
20260506144924 41 0.0 0.0 0.00 0.00 0.00 17 1006.7
20260506143918 24 0.0 0.0 0.00 0.00 0.00 38 1009.4
20260506142919 26 0.0 0.0 0.00 0.00 0.00 30 1009.1
20260506141924 28 0.0 0.0 0.00 0.00 0.00 29 1008.8
20260506140919 22 0.0 0.0 0.00 0.00 0.00 36 1010.0
20260506135919 22 0.0 0.0 0.00 0.00 0.00 37 1010.1
20260506134919 21 0.0 0.0 0.00 0.00 0.00 46 1010.4
20260506133918 21 0.0 0.0 0.00 0.00 0.00 47 1010.4
20260506132919 22 0.0 0.0 0.00 0.00 0.00 39 1010.1
20260506131918 21 0.0 0.0 0.00 0.00 0.00 38 1010.5
20260506130921 22 0.0 0.0 0.00 0.00 0.00 45 1010.3
20260506125919 23 0.0 0.0 0.00 0.00 0.00 35 1010.2
20260506124919 23 0.0 0.0 0.00 0.00 0.00 42 1010.3
20260506123919 23 0.0 0.0 0.00 0.00 0.00 39 1010.5
20260506122919 21 0.0 0.0 0.00 0.00 0.00 47 1010.8
20260506121918 21 0.0 0.0 0.00 0.00 0.00 38 1010.8
20260506120918 21 0.0 0.0 0.00 0.00 0.00 45 1010.9
20260506115924 21 0.0 0.0 0.00 0.00 0.00 41 1010.9
20260506114924 21 0.0 0.0 0.00 0.00 0.00 47 1010.9
20260506113919 21 0.0 0.0 0.00 0.00 0.00 54 1011.1
20260506112918 19 0.0 0.0 0.00 0.00 0.00 55 1011.5
20260506111924 20 0.0 0.0 0.00 0.00 0.00 56 1011.5
20260506110919 19 0.0 0.0 0.00 0.00 0.00 56 1011.8
20260506105919 18 0.0 0.0 0.00 0.00 0.00 55 1011.9
20260506104918 18 0.0 0.0 0.00 0.00 0.00 56 1011.9
20260506103919 18 0.0 0.0 0.00 0.00 0.00 59 1012.1
20260506102918 18 0.0 0.0 0.00 0.00 0.00 64 1012.2
20260506101918 18 0.0 0.0 0.00 0.00 0.00 66 1012.3
20260506100924 17 0.0 0.0 0.00 0.00 0.00 68 1012.3
20260506095924 17 0.0 0.0 0.00 0.00 0.00 74 1012.5
20260506094929 16 0.0 0.0 0.00 0.00 0.00 80 1013.0
20260506093919 16 0.0 0.0 0.00 0.00 0.00 77 1012.9
20260506092919 16 0.0 0.0 0.00 0.00 0.00 82 1013.0
20260506091924 16 0.0 0.0 0.00 0.00 0.00 83 1013.1
20260506090919 15 0.0 0.0 0.00 0.00 0.00 86 1013.0
20260506085918 15 0.0 0.0 0.00 0.00 0.00 88 1013.1
20260506084924 15 0.0 0.0 0.00 0.00 0.00 89 1013.2
20260506083918 13 0.0 0.0 0.00 0.00 0.00 98 1013.2
20260506082924 14 0.0 0.0 0.00 0.00 0.00 10 1013.2
20260506081919 13 0.0 0.0 0.00 0.00 0.00 10 1013.1
20260506080918 13 0.0 0.0 0.00 0.00 0.00 10 1013.0
20260506072919 11 0.0 0.0 0.00 0.00 0.00 10 1013.4
20260506071919 11 0.0 0.0 0.00 0.00 0.00 10 1013.5
20260506070929 11 0.0 0.0 0.00 0.00 0.00 10 1013.5
20260506061919 9 0.0 0.0 0.00 0.00 0.00 10 1013.6
20260506060918 9 0.0 0.0 0.00 0.00 0.00 10 1013.6
20260506050924 8 0.0 0.0 0.00 0.00 0.00 10 1013.1
20260506044919 8 0.0 0.0 0.00 0.00 0.00 10 1013.0
20260506043919 8 0.0 0.0 0.00 0.00 0.00 10 1013.0
20260506042918 8 0.0 0.0 0.00 0.00 0.00 10 1012.9
20260506041919 8 0.0 0.0 0.00 0.00 0.00 10 1012.9
20260506040919 9 0.0 0.0 0.00 0.00 0.00 10 1012.6
20260506035919 9 0.0 0.0 0.00 0.00 0.00 10 1012.5
20260506034919 9 0.0 0.0 0.00 0.00 0.00 10 1012.6
20260506033919 9 0.0 0.0 0.00 0.00 0.00 10 1012.6
20260506032924 8 0.0 0.0 0.00 0.00 0.00 10 1012.5
20260506031919 8 0.0 0.0 0.00 0.00 0.00 10 1012.6
20260506030919 8 0.0 0.0 0.00 0.00 0.00 10 1012.5
20260506025919 8 0.0 0.0 0.00 0.00 0.00 10 1012.5
20260506024919 9 0.0 0.0 0.00 0.00 0.00 10 1012.5
20260506023918 9 0.0 0.0 0.00 0.00 0.00 10 1012.3
20260506022919 10 0.0 0.0 0.00 0.00 0.00 10 1012.3
20260506021919 10 0.0 0.0 0.00 0.00 0.00 10 1012.3
20260506020924 10 0.0 0.0 0.00 0.00 0.00 10 1012.2
20260506015919 10 0.0 0.0 0.00 0.00 0.00 10 1012.1
20260506014919 10 0.0 0.0 0.00 0.00 0.00 10 1012.0
20260506013919 10 0.0 0.0 0.00 0.00 0.00 10 1011.9
20260506012919 10 0.0 0.0 0.00 0.00 0.00 10 1011.9
20260506011924 10 0.0 0.0 0.00 0.00 0.00 10 1012.1
20260506010924 9 0.0 0.0 0.00 0.00 0.00 10 1012.2
20260506005919 8 0.0 0.0 0.00 0.00 0.00 10 1012.5
20260506004919 8 0.0 0.0 0.00 0.00 0.00 10 1012.6
20260506003919 8 0.0 0.0 0.00 0.00 0.00 10 1012.7
20260506002924 8 0.0 0.0 0.00 0.00 0.00 10 1012.8
20260506001924 8 0.0 0.0 0.00 0.00 0.00 10 1012.8
20260506000919 8 0.0 0.0 0.00 0.00 0.00 10 1012.7
20260505235924 8 0.0 0.0 0.00 0.00 0.00 10 1012.8
20260505234919 9 0.0 0.0 0.00 0.00 0.00 10 1012.6
20260505233919 9 0.0 0.0 0.00 0.00 0.00 10 1012.7
20260505232919 9 0.0 0.0 0.00 0.00 0.00 10 1012.7
20260505231919 9 0.0 0.0 0.00 0.00 0.00 10 1012.6
20260505230919 9 0.0 0.0 0.00 0.00 0.00 10 1012.6
20260505225919 9 0.0 0.0 0.00 0.00 0.00 10 1012.6
20260505224919 10 0.0 0.0 0.00 0.00 0.00 10 1012.3
20260505223919 10 0.0 0.0 0.00 0.00 0.00 10 1012.4
20260505222919 10 0.0 0.0 0.00 0.00 0.00 10 1012.7
20260505221919 10 0.0 0.0 0.00 0.00 0.00 10 1012.7
20260505220929 10 0.0 0.0 0.00 0.00 0.00 10 1012.8
20260505215919 10 0.0 0.0 0.00 0.00 0.00 10 1013.0
20260505214919 10 0.0 0.0 0.00 0.00 0.00 10 1013.1
20260505213919 10 0.0 0.0 0.00 0.00 0.00 10 1013.1
20260505212919 10 0.0 0.0 0.00 0.00 0.00 10 1012.8
20260505211919 10 0.0 0.0 0.00 0.00 0.00 10 1012.9
20260505210919 10 0.0 0.0 0.00 0.00 0.00 10 1012.9
20260505205919 10 0.0 0.0 0.00 0.00 0.00 10 1012.7
20260505204919 10 0.0 0.0 0.00 0.00 0.00 10 1012.8
20260505203919 10 0.0 0.0 0.00 0.00 0.00 10 1012.7
20260505202919 10 0.0 0.0 0.00 0.00 0.00 10 1012.4
20260505201920 10 0.0 0.0 0.00 0.00 0.00 10 1012.3
20260505200919 10 0.0 0.0 0.00 0.00 0.00 10 1012.2
20260505195919 10 0.0 0.0 0.00 0.00 0.00 10 1012.1
20260505194919 10 0.0 0.0 0.00 0.00 0.00 10 1011.9
20260505193919 10 0.0 0.0 0.00 0.00 0.00 10 1011.7
20260505192919 11 0.0 0.0 0.00 0.00 0.00 10 1011.6
20260505191919 11 0.0 0.0 0.00 0.00 0.00 10 1011.5
20260505190919 11 0.0 0.0 0.00 0.00 0.00 10 1011.3
20260505185919 11 0.0 0.0 0.00 0.00 0.00 10 1011.4
20260505184919 11 0.0 0.0 0.00 0.00 0.00 10 1011.5
20260505183919 11 0.0 0.0 0.00 0.00 0.00 10 1011.5
20260505182919 12 0.0 0.0 0.00 0.00 0.00 10 1011.2
20260505181919 12 0.0 0.0 0.00 0.00 0.00 10 1011.1
20260505180919 11 0.0 0.0 0.00 0.00 0.00 10 1011.2
20260505175924 11 0.0 0.0 0.00 0.00 0.00 10 1011.3